EW5026 Weather Reports


Display with metric or nautical units.
time (UTC)temp
F
wind
direction
speed
MPH
gust
MPH
rain 1hr
in
rain 24hr
in
rain mn
in
humidity
%
barometer
mb
20260901110548 71 183 1.0 3.0 0.00 0.01 0.00 93 1012.8
20260901110055 71 183 1.0 3.0 0.00 0.01 0.00 92 1012.9
20260901105547 71 183 0.0 3.0 0.00 0.01 0.00 92 1012.9
20260901105047 71 183 1.0 3.0 0.00 0.01 0.00 93 1012.8
20260901104551 71 183 1.0 3.0 0.00 0.01 0.00 93 1012.9
20260901104047 71 183 1.0 2.0 0.00 0.01 0.00 93 1012.9
20260901103547 71 183 1.0 2.0 0.00 0.01 0.00 92 1012.9
20260901103046 71 183 0.0 1.0 0.00 0.01 0.00 92 1012.9
20260901102547 71 183 0.0 2.0 0.00 0.01 0.00 92 1013.0
20260901102046 71 183 0.0 2.0 0.00 0.01 0.00 92 1013.0
20260901101552 71 183 0.0 2.0 0.00 0.01 0.00 92 1012.9
20260901101048 71 183 0.0 2.0 0.00 0.01 0.00 92 1013.0
20260901100546 71 183 0.0 2.0 0.00 0.01 0.00 92 1012.9
20260901100043 71 183 0.0 3.0 0.00 0.01 0.00 92 1012.8
20260901095543 71 165 1.0 3.0 0.00 0.01 0.00 92 1012.8
20260901095044 71 169 1.0 3.0 0.00 0.01 0.00 92 1012.6
20260901094543 71 163 1.0 3.0 0.00 0.01 0.00 92 1012.7
20260901094041 71 178 0.0 2.0 0.00 0.01 0.00 91 1012.8
20260901093541 72 188 0.0 2.0 0.00 0.01 0.00 91 1012.7
20260901093049 72 186 0.0 0.0 0.00 0.01 0.00 90 1012.7
20260901092541 72 186 0.0 0.0 0.00 0.01 0.00 90 1012.7
20260901092042 72 186 0.0 0.0 0.00 0.01 0.00 90 1012.7
20260901091552 72 186 0.0 0.0 0.00 0.01 0.00 90 1012.7
20260901091037 73 186 0.0 0.0 0.00 0.01 0.00 90 1012.7
20260901090539 73 186 0.0 0.0 0.00 0.01 0.00 90 1012.7
20260901090036 73 186 0.0 0.0 0.00 0.01 0.00 89 1012.7
20260901085535 73 186 0.0 0.0 0.00 0.01 0.00 89 1012.7
20260901085037 73 186 0.0 0.0 0.00 0.01 0.00 89 1012.7
20260901084536 74 186 0.0 1.0 0.00 0.01 0.00 88 1012.7
20260901084033 74 186 0.0 2.0 0.00 0.01 0.00 88 1012.7
20260901083535 74 186 0.0 2.0 0.00 0.01 0.00 87 1012.7
20260901083032 74 186 0.0 3.0 0.00 0.01 0.00 87 1012.7
20260901082531 75 186 0.0 3.0 0.00 0.01 0.00 87 1012.7
20260901082030 75 186 0.0 4.0 0.00 0.01 0.00 87 1012.6
20260901081530 75 198 1.0 4.0 0.00 0.01 0.00 86 1012.5
20260901081030 75 204 0.0 6.0 0.00 0.01 0.00 86 1012.5
20260901080529 75 191 1.0 6.0 0.00 0.01 0.00 86 1012.4
20260901080033 75 191 1.0 6.0 0.00 0.01 0.00 86 1012.5
20260901075532 75 213 2.0 6.0 0.00 0.01 0.00 86 1012.4
20260901075033 75 217 1.0 3.0 0.00 0.01 0.00 87 1012.4
20260901074527 75 199 1.0 5.0 0.00 0.01 0.00 87 1012.3
20260901074029 75 204 1.0 5.0 0.00 0.01 0.00 87 1012.3
20260901073529 74 200 1.0 3.0 0.00 0.01 0.00 87 1012.3
20260901073027 75 198 1.0 3.0 0.00 0.01 0.00 87 1012.4
20260901072528 75 208 1.0 3.0 0.00 0.01 0.00 87 1012.3
20260901072030 75 195 0.0 3.0 0.00 0.01 0.00 86 1012.2
20260901071526 75 202 0.0 2.0 0.00 0.01 0.00 86 1012.3
20260901071025 75 179 0.0 2.0 0.00 0.01 0.00 86 1012.3
20260901070525 75 179 0.0 2.0 0.00 0.01 0.00 86 1012.2
20260901070025 75 176 1.0 5.0 0.00 0.01 0.00 86 1012.2
20260901065525 75 190 1.0 5.0 0.00 0.01 0.00 86 1012.2
20260901065025 75 186 1.0 3.0 0.00 0.01 0.00 86 1012.2
20260901064525 75 183 1.0 4.0 0.00 0.01 0.00 86 1012.1
20260901064025 75 204 1.0 4.0 0.00 0.01 0.00 86 1012.2
20260901063526 75 174 1.0 4.0 0.00 0.01 0.00 86 1012.2
20260901063024 75 189 1.0 4.0 0.00 0.01 0.00 86 1012.1
20260901062524 76 173 1.0 4.0 0.00 0.01 0.00 85 1012.1
20260901062025 75 197 2.0 5.0 0.00 0.01 0.00 86 1012.1
20260901061523 75 179 2.0 5.0 0.00 0.01 0.00 86 1012.2
20260901061023 75 188 2.0 5.0 0.00 0.01 0.00 87 1012.2
20260901060523 75 178 1.0 3.0 0.00 0.01 0.00 87 1012.1
20260901060023 74 200 1.0 5.0 0.00 0.01 0.00 88 1012.2
20260901055525 74 194 0.0 5.0 0.00 0.01 0.00 88 1012.2
20260901055024 74 169 0.0 1.0 0.00 0.01 0.00 88 1012.2
20260901054521 74 169 0.0 0.0 0.00 0.01 0.00 88 1012.2
20260901054020 74 169 0.0 3.0 0.00 0.01 0.00 88 1012.2
20260901053520 75 169 0.0 3.0 0.00 0.01 0.00 88 1012.2
20260901053019 75 169 1.0 3.0 0.00 0.01 0.00 88 1012.2
20260901052518 75 169 1.0 3.0 0.00 0.01 0.00 88 1012.2
20260901052021 75 169 0.0 2.0 0.00 0.01 0.00 88 1012.2
20260901051518 75 169 0.0 3.0 0.00 0.01 0.00 87 1012.3
20260901051017 75 161 1.0 3.0 0.00 0.01 0.00 87 1012.2
20260901050517 75 169 2.0 4.0 0.00 0.01 0.00 87 1012.2
20260901050016 75 160 1.0 5.0 0.00 0.01 0.00 87 1012.2
20260901045515 75 151 2.0 5.0 0.00 0.01 0.01 87 1012.2
20260901045017 75 155 2.0 5.0 0.00 0.01 0.01 87 1012.2
20260901044515 75 175 2.0 5.0 0.00 0.01 0.01 88 1012.2
20260901044015 75 165 2.0 5.0 0.00 0.01 0.01 88 1012.2
20260901043515 75 163 2.0 5.0 0.00 0.01 0.01 88 1012.2
20260901043018 75 157 2.0 5.0 0.00 0.01 0.01 89 1012.2
20260901042516 75 164 1.0 3.0 0.00 0.01 0.01 89 1012.2
20260901042014 75 164 1.0 3.0 0.00 0.01 0.01 89 1012.2
20260901041515 75 164 0.0 1.0 0.00 0.01 0.01 89 1012.2
20260901041014 75 164 0.0 0.0 0.00 0.01 0.01 88 1012.1
20260901040514 75 164 0.0 1.0 0.00 0.01 0.01 88 1012.2
20260901040014 75 164 0.0 1.0 0.00 0.01 0.01 88 1012.2
20260901035513 75 164 0.0 0.0 0.00 0.01 0.01 88 1012.2
20260901035015 75 164 0.0 0.0 0.00 0.01 0.01 88 1012.2
20260901034513 76 164 0.0 0.0 0.00 0.01 0.01 88 1012.1
20260901034016 76 164 0.0 0.0 0.00 0.01 0.01 88 1012.2
20260901033514 76 164 0.0 1.0 0.00 0.01 0.01 88 1012.2
20260901033013 76 164 0.0 1.0 0.00 0.01 0.01 87 1012.2
20260901032514 76 164 0.0 1.0 0.00 0.01 0.01 87 1012.3
20260901032013 76 164 0.0 0.0 0.00 0.01 0.01 87 1012.4
20260901031525 77 164 0.0 1.0 0.00 0.01 0.01 87 1012.4
20260901031015 77 164 0.0 1.0 0.00 0.01 0.01 86 1012.4
20260901030512 77 164 0.0 1.0 0.00 0.01 0.01 86 1012.4
20260901030012 77 164 0.0 1.0 0.00 0.01 0.01 85 1012.5
20260901025522 78 164 0.0 1.0 0.00 0.01 0.01 85 1012.5
20260901025016 78 164 0.0 1.0 0.00 0.01 0.01 84 1012.5
20260901024512 78 164 0.0 1.0 0.00 0.01 0.01 84 1012.4
20260901024011 79 164 0.0 3.0 0.00 0.01 0.01 83 1012.4
20260901023511 79 164 0.0 4.0 0.00 0.01 0.01 83 1012.3
20260901023021 79 152 1.0 5.0 0.00 0.01 0.01 82 1012.4
20260901022514 79 158 2.0 5.0 0.00 0.01 0.01 82 1012.4
20260901022010 79 169 1.0 4.0 0.00 0.01 0.01 82 1012.4
20260901021516 79 148 0.0 3.0 0.00 0.01 0.01 83 1012.4
20260901021012 80 150 0.0 3.0 0.00 0.01 0.01 82 1012.4
20260901020510 80 130 0.0 6.0 0.00 0.01 0.01 82 1012.4
20260901020025 81 130 2.0 6.0 0.00 0.01 0.01 81 1012.3
20260901015509 81 130 2.0 4.0 0.00 0.01 0.01 81 1012.4
20260901015010 81 147 2.0 6.0 0.00 0.01 0.01 80 1012.4
20260901014511 81 130 3.0 6.0 0.00 0.01 0.01 80 1012.4
20260901014009 81 122 3.0 7.0 0.00 0.01 0.01 80 1012.4
20260901013514 82 134 2.0 7.0 0.00 0.01 0.01 80 1012.3
20260901013023 82 122 3.0 6.0 0.00 0.01 0.01 79 1012.3
20260901012510 82 130 3.0 6.0 0.00 0.01 0.01 79 1012.3
20260901012009 82 121 3.0 7.0 0.00 0.01 0.01 79 1012.3
20260901011514 82 134 3.0 7.0 0.00 0.01 0.01 79 1012.2
20260901011012 82 125 2.0 4.0 0.00 0.01 0.01 79 1012.2
20260901010508 82 131 3.0 4.0 0.00 0.01 0.01 79 1012.1
20260901010008 81 123 2.0 4.0 0.00 0.01 0.01 80 1012.1
20260901005508 81 123 2.0 4.0 0.00 0.01 0.01 80 1012.2
20260901005109 82 123 1.0 3.0 0.00 0.01 0.01 80 1012.0
20260901004506 82 123 1.0 4.0 0.00 0.01 0.01 80 1012.0
20260901004006 83 123 2.0 5.0 0.00 0.01 0.01 78 1012.0
20260901003506 84 115 2.0 5.0 0.00 0.01 0.01 77 1012.0
20260901003008 84 114 2.0 4.0 0.00 0.01 0.01 76 1012.1
20260901002507 84 115 1.0 3.0 0.00 0.01 0.01 76 1012.2
20260901002007 84 183 0.0 1.0 0.00 0.01 0.01 78 1012.3
20260901001511 84 183 0.0 1.0 0.00 0.01 0.01 77 1012.3
20260901001006 84 183 0.0 1.0 0.00 0.01 0.01 78 1012.3
20260901000506 85 183 0.0 0.0 0.00 0.01 0.01 79 1012.4
20260901000008 85 183 0.0 1.0 0.00 0.01 0.01 77 1012.2
20260831235505 85 183 0.0 1.0 0.00 0.01 0.01 77 1012.1
20260831235006 85 183 0.0 2.0 0.00 0.01 0.01 78 1012.0
20260831234507 85 183 0.0 2.0 0.00 0.01 0.01 77 1011.8
20260831234005 86 183 0.0 1.0 0.00 0.01 0.01 77 1011.7
20260831233504 86 183 0.0 1.0 0.00 0.01 0.01 76 1011.8
20260831233007 86 183 0.0 1.0 0.00 0.01 0.01 75 1011.8
20260831232505 87 183 0.0 2.0 0.00 0.01 0.01 73 1011.7
20260831232005 88 183 0.0 5.0 0.00 0.01 0.01 72 1011.7
20260831231505 88 161 2.0 6.0 0.00 0.01 0.01 70 1011.7
20260831231004 88 173 2.0 6.0 0.00 0.01 0.01 69 1011.6
20260831230505 88 183 2.0 7.0 0.00 0.01 0.01 69 1011.5
20260831230006 89 188 3.0 9.0 0.00 0.01 0.01 68 1011.5
20260831225503 89 190 4.0 9.0 0.00 0.01 0.01 66 1011.4
20260831225005 89 192 4.0 8.0 0.00 0.01 0.01 66 1011.4
20260831224506 89 210 4.0 9.0 0.00 0.01 0.01 66 1011.4
20260831224004 89 190 4.0 11.0 0.00 0.01 0.01 66 1011.3
20260831223503 90 158 4.0 12.0 0.00 0.01 0.01 65 1011.2
20260831223003 90 215 4.0 13.0 0.00 0.01 0.01 64 1011.3
20260831222503 90 190 4.0 13.0 0.00 0.01 0.01 64 1011.2
20260831222003 91 213 7.0 13.0 0.00 0.01 0.01 63 1011.2
20260831221503 91 202 7.0 13.0 0.00 0.01 0.01 63 1011.3
20260831221002 91 197 6.0 12.0 0.00 0.01 0.01 62 1011.3
20260831220502 91 222 6.0 12.0 0.00 0.01 0.01 62 1011.3
20260831220002 92 234 6.0 10.0 0.00 0.01 0.01 62 1011.3
20260831215503 92 207 5.0 11.0 0.00 0.01 0.01 62 1011.3
20260831215004 92 223 6.0 11.0 0.00 0.01 0.01 62 1011.3
20260831214501 92 179 6.0 11.0 0.00 0.01 0.01 62 1011.3
20260831214001 92 164 7.0 12.0 0.00 0.01 0.01 62 1011.2
20260831213502 92 148 6.0 14.0 0.00 0.01 0.01 62 1011.3
20260831213102 92 199 6.0 14.0 0.00 0.01 0.01 62 1011.3
20260831212601 92 202 6.0 15.0 0.00 0.01 0.01 62 1011.4
20260831212100 91 193 5.0 15.0 0.00 0.01 0.01 65 1011.3
20260831211603 91 197 7.0 16.0 0.00 0.01 0.01 62 1011.1
20260831211100 91 153 9.0 16.0 0.00 0.01 0.01 62 1011.0
20260831210559 91 155 10.0 16.0 0.00 0.01 0.01 63 1010.9
20260831210114 91 160 9.0 18.0 0.00 0.01 0.01 63 1010.9
20260831205559 91 176 9.0 18.0 0.00 0.01 0.01 61 1010.8
20260831205059 92 164 10.0 17.0 0.00 0.01 0.01 59 1010.8
20260831204559 92 184 8.0 16.0 0.00 0.01 0.01 59 1010.9
20260831204058 91 169 9.0 16.0 0.00 0.01 0.01 61 1010.9
20260831203558 91 167 10.0 16.0 0.00 0.01 0.01 60 1010.8
20260831203104 91 173 10.0 18.0 0.00 0.01 0.01 60 1010.9
20260831202556 91 202 9.0 18.0 0.00 0.01 0.01 59 1011.0
20260831202056 91 155 10.0 18.0 0.00 0.01 0.01 59 1011.1
20260831201600 91 137 11.0 17.0 0.00 0.01 0.01 60 1011.1
20260831201055 91 157 10.0 18.0 0.00 0.01 0.01 60 1011.2
20260831200554 91 169 10.0 18.0 0.00 0.01 0.01 58 1011.1
20260831200054 92 167 7.0 17.0 0.00 0.01 0.01 61 1011.3
20260831195552 91 166 9.0 17.0 0.00 0.01 0.01 63 1011.3
20260831195052 91 173 7.0 16.0 0.00 0.01 0.01 62 1011.3
20260831194557 91 161 9.0 18.0 0.00 0.01 0.01 62 1011.4
20260831194056 91 141 9.0 18.0 0.00 0.01 0.01 61 1011.5
20260831193551 91 150 10.0 18.0 0.00 0.01 0.01 60 1011.5
20260831193049 91 167 10.0 18.0 0.00 0.01 0.01 61 1011.6
20260831192549 91 162 9.0 18.0 0.00 0.01 0.01 61 1011.5
20260831192048 90 192 9.0 18.0 0.00 0.01 0.01 63 1011.6
20260831191558 90 153 11.0 18.0 0.00 0.01 0.01 61 1011.7
20260831191047 90 153 11.0 18.0 0.00 0.01 0.01 61 1011.7
20260831190551 90 170 9.0 19.0 0.00 0.01 0.01 62 1011.7
20260831190048 90 182 10.0 19.0 0.00 0.01 0.01 60 1011.7
20260831185545 90 131 10.0 17.0 0.00 0.01 0.01 62 1011.7
20260831185043 90 182 10.0 17.0 0.00 0.01 0.01 60 1011.8
20260831184548 90 161 9.0 14.0 0.00 0.01 0.01 62 1011.8
20260831184042 90 150 9.0 15.0 0.00 0.01 0.01 62 1012.1
20260831183541 90 147 9.0 15.0 0.00 0.01 0.01 60 1012.2
20260831183041 90 172 9.0 15.0 0.00 0.01 0.01 59 1012.5
20260831182539 89 151 7.0 17.0 0.00 0.01 0.01 61 1012.5
20260831182041 89 183 10.0 17.0 0.00 0.01 0.01 59 1012.6
20260831181540 90 131 9.0 15.0 0.00 0.01 0.01 59 1012.6
20260831181038 90 146 7.0 12.0 0.00 0.01 0.01 62 1012.7
20260831180537 89 192 6.0 15.0 0.00 0.01 0.01 63 1012.8
20260831180035 89 194 5.0 15.0 0.00 0.01 0.01 63 1013.0
20260831175535 89 165 6.0 12.0 0.00 0.01 0.01 61 1013.1
20260831175034 88 183 7.0 13.0 0.00 0.01 0.01 61 1013.2
20260831174534 88 187 6.0 11.0 0.00 0.01 0.01 64 1013.2
20260831174036 88 169 6.0 12.0 0.00 0.01 0.01 65 1013.3
20260831173533 88 153 8.0 12.0 0.00 0.01 0.01 62 1013.4
20260831173032 88 187 6.0 10.0 0.00 0.01 0.01 66 1013.5
20260831172532 88 179 6.0 10.0 0.00 0.01 0.01 63 1013.6
20260831172031 87 150 5.0 12.0 0.00 0.01 0.01 66 1013.6
20260831171530 87 162 6.0 12.0 0.00 0.01 0.01 68 1013.7
20260831171029 86 167 5.0 9.0 0.00 0.01 0.01 65 1013.7
20260831170529 86 167 5.0 10.0 0.00 0.01 0.01 65 1013.8
20260831170028 86 138 5.0 12.0 0.00 0.01 0.01 65 1013.8
20260831165528 86 144 8.0 13.0 0.00 0.01 0.01 64 1013.9
20260831165028 86 159 7.0 13.0 0.00 0.01 0.01 66 1013.9
20260831164538 86 159 6.0 10.0 0.00 0.01 0.01 65 1013.8
20260831164028 86 143 6.0 12.0 0.00 0.01 0.01 66 1013.9
20260831163525 85 157 6.0 12.0 0.00 0.01 0.01 66 1014.0
20260831163023 84 165 4.0 10.0 0.00 0.01 0.01 70 1014.1
20260831162526 84 138 4.0 10.0 0.00 0.01 0.01 70 1014.0
20260831162023 84 147 6.0 11.0 0.00 0.01 0.01 68 1014.1
20260831161523 84 173 4.0 11.0 0.00 0.01 0.01 67 1014.1
20260831161023 84 174 5.0 9.0 0.00 0.01 0.01 68 1014.0
20260831160525 84 189 5.0 9.0 0.00 0.01 0.01 67 1014.0
20260831160020 84 156 4.0 9.0 0.00 0.01 0.01 68 1014.1
20260831155520 83 182 5.0 8.0 0.00 0.01 0.01 66 1014.1
20260831155020 83 189 4.0 8.0 0.00 0.01 0.01 68 1014.1
20260831154520 83 176 2.0 8.0 0.00 0.01 0.01 65 1014.1
20260831154019 83 172 3.0 9.0 0.00 0.01 0.01 68 1014.2
20260831153522 83 210 4.0 9.0 0.00 0.01 0.01 66 1014.2
20260831153019 83 174 4.0 7.0 0.00 0.01 0.01 66 1014.2
20260831152518 83 183 3.0 7.0 0.00 0.01 0.01 67 1014.2
20260831152017 83 182 4.0 8.0 0.00 0.01 0.01 69 1014.3
20260831151516 82 157 4.0 9.0 0.00 0.01 0.01 69 1014.2
20260831151014 82 159 3.0 9.0 0.00 0.01 0.01 72 1014.2
20260831150514 81 193 4.0 8.0 0.00 0.01 0.01 74 1014.1
20260831150012 81 188 4.0 8.0 0.00 0.01 0.01 72 1014.0
20260831145510 80 141 3.0 7.0 0.00 0.03 0.01 73 1014.1
20260831145011 79 150 2.0 7.0 0.00 0.03 0.01 78 1014.0
20260831144509 79 163 4.0 8.0 0.00 0.03 0.01 74 1014.0
20260831144008 79 154 4.0 8.0 0.00 0.03 0.01 76 1014.0
20260831143509 78 155 4.0 8.0 0.00 0.03 0.01 77 1014.1
20260831143005 78 190 1.0 6.0 0.00 0.03 0.01 78 1014.1
20260831142504 77 163 2.0 7.0 0.00 0.03 0.01 77 1014.1
20260831142004 77 157 3.0 8.0 0.00 0.03 0.01 76 1014.0
20260831141503 77 190 3.0 10.0 0.00 0.03 0.01 79 1014.0
20260831141001 77 172 3.0 10.0 0.00 0.03 0.01 79 1014.0
20260831140501 77 154 5.0 8.0 0.00 0.03 0.01 79 1013.8
20260831135558 76 145 3.0 7.0 0.00 0.03 0.01 79 1014.0
20260831135057 75 144 4.0 7.0 0.00 0.03 0.01 80 1013.9
20260831134556 75 145 3.0 7.0 0.00 0.03 0.01 81 1014.0
20260831134054 75 171 3.0 7.0 0.00 0.03 0.01 82 1013.9
20260831133555 74 137 3.0 7.0 0.00 0.03 0.01 82 1014.0
20260831133054 74 158 4.0 7.0 0.00 0.03 0.01 82 1013.9
20260831132554 74 165 4.0 7.0 0.00 0.03 0.01 81 1013.9
20260831132053 74 154 3.0 7.0 0.00 0.03 0.01 83 1013.8
20260831131552 73 144 3.0 6.0 0.00 0.03 0.01 85 1013.7
20260831131052 72 154 3.0 5.0 0.00 0.03 0.01 84 1013.7
20260831130555 72 156 3.0 7.0 0.00 0.03 0.01 85 1013.7
20260831130052 72 140 3.0 7.0 0.00 0.03 0.01 85 1013.7
20260831125551 71 155 3.0 5.0 0.00 0.03 0.01 86 1013.8
20260831125053 71 153 2.0 6.0 0.01 0.03 0.01 86 1013.7
20260831124600 71 144 2.0 6.0 0.01 0.03 0.01 86 1013.6
20260831124050 71 167 2.0 5.0 0.01 0.03 0.01 86 1013.6
20260831123550 71 161 2.0 4.0 0.01 0.03 0.01 86 1013.5
20260831123049 71 163 2.0 5.0 0.01 0.03 0.01 86 1013.5
20260831122550 70 154 2.0 5.0 0.01 0.03 0.01 86 1013.4
20260831122050 70 154 2.0 5.0 0.01 0.03 0.01 87 1013.3
20260831121551 70 159 3.0 5.0 0.01 0.03 0.01 88 1013.3
20260831121050 70 157 0.0 3.0 0.01 0.03 0.01 89 1013.3
20260831120548 70 160 1.0 4.0 0.01 0.03 0.01 88 1013.2
20260831120050 70 157 2.0 4.0 0.01 0.03 0.01 88 1013.3
20260831115548 70 167 1.0 3.0 0.01 0.03 0.01 87 1013.3
20260831115048 70 173 0.0 3.0 0.00 0.02 0.00 86 1013.3
20260831114553 70 178 0.0 3.0 0.00 0.02 0.00 86 1013.2
20260831114048 71 161 1.0 4.0 0.00 0.02 0.00 86 1013.1
20260831113548 71 159 0.0 5.0 0.00 0.02 0.00 85 1013.1
20260831113048 71 154 1.0 5.0 0.00 0.02 0.00 85 1013.1
20260831112550 71 158 2.0 6.0 0.00 0.02 0.00 84 1013.0
20260831112051 71 155 3.0 7.0 0.00 0.02 0.00 84 1013.1
20260831111547 71 159 4.0 7.0 0.00 0.02 0.00 85 1012.9
20260831111047 71 165 3.0 6.0 0.00 0.02 0.00 86 1012.9